Location: *
(55.5817°S, 142.4781°W)
Time: 07:20:35
(UTC+00:00)

BREEZE-M DEB (TANK) - Pass Details

Date: 29 April 2025
Orbit: 318 x 17925 km, 53.0° (Epoch: 23 May)

Event Time Altitude Azimuth Distance (km) Brightness Sun altitude
Exits shadow 13:07:21 60° 335° (NNW) 1,683 4.4 -31.5°
Maximum altitude 13:07:37 60° 344° (NNW) 1,730 4.4 -31.4°
Drops below altitude 10° 13:30:11 10° 55° (NE) 9,670 9.0 -28.4°
Sets 13:45:37 0° 54° (NE) 13,995 10.0 -26.3°
